FW5359 Weather Reports


time (UTC)temp
C
wind
direction
speed
KPH
gust
KPH
rain 1hr
cm
rain 24hr
cm
rain mn
cm
humidity
%
barometer
mb
20260509120255 22 53 3.2 9.7 0.00 0.00 0.00 95 1012.8
20260509115754 22 30 3.2 9.7 0.00 0.00 0.00 95 1012.8
20260509115254 22 70 3.2 14.5 0.00 0.00 0.00 95 1012.8
20260509114755 22 74 3.2 14.5 0.00 0.00 0.00 95 1012.6
20260509114255 22 84 1.6 11.3 0.00 0.00 0.00 95 1012.4
20260509113755 22 88 1.6 6.4 0.00 0.00 0.00 95 1012.1
20260509113526 22 88 1.6 4.8 0.00 0.00 0.00 95 1011.9
20260509112757 22 88 1.6 4.8 0.00 0.00 0.00 95 1011.9
20260509112253 22 88 1.6 4.8 0.00 0.00 0.00 95 1011.9
20260509111750 22 88 1.6 4.8 0.00 0.00 0.00 95 1011.7
20260509111249 22 88 1.6 4.8 0.00 0.00 0.00 95 1011.8
20260509110749 22 88 0.0 4.8 0.00 0.00 0.00 95 1011.7
20260509110519 22 88 0.0 4.8 0.00 0.00 0.00 95 1011.8
20260509105749 22 88 1.6 4.8 0.00 0.00 0.00 95 1011.8
20260509105248 22 88 1.6 4.8 0.00 0.00 0.00 95 1011.9
20260509105017 22 88 1.6 9.7 0.00 0.00 0.00 95 1011.8
20260509104245 22 88 1.6 8.0 0.00 0.00 0.00 95 1011.8
20260509103745 22 90 1.6 9.7 0.00 0.00 0.00 95 1011.9
20260509103518 22 90 1.6 9.7 0.00 0.00 0.00 95 1011.9
20260509102743 22 97 1.6 8.0 0.00 0.00 0.00 94 1011.9
20260509102242 22 155 1.6 8.0 0.00 0.00 0.00 94 1012.0
20260509101742 22 156 1.6 8.0 0.00 0.00 0.00 94 1012.0
20260509101235 22 159 1.6 6.4 0.00 0.00 0.00 94 1012.0
20260509100730 22 159 1.6 6.4 0.00 0.00 0.00 94 1011.8
20260509100454 22 168 0.0 3.2 0.00 0.00 0.00 94 1011.6
20260509095718 22 168 0.0 3.2 0.00 0.00 0.00 94 1011.5
20260509095212 22 168 0.0 3.2 0.00 0.00 0.00 94 1011.3
20260509094706 22 168 0.0 0.0 0.00 0.00 0.00 94 1011.1
20260509094204 22 168 0.0 0.0 0.00 0.00 0.00 94 1011.0
20260509093924 22 168 0.0 0.0 0.00 0.00 0.00 94 1010.9
20260509093420 22 168 0.0 6.4 0.00 0.00 0.00 94 1010.9
20260509092641 22 168 0.0 6.4 0.00 0.00 0.00 94 1010.7
20260509092408 22 168 1.6 6.4 0.00 0.00 0.00 94 1010.8
20260509091630 22 168 1.6 6.4 0.00 0.00 0.00 94 1010.8
20260509091124 22 171 0.0 0.0 0.00 0.00 0.00 94 1010.9
20260509090618 22 171 0.0 6.4 0.00 0.00 0.00 94 1010.9
20260509090344 22 171 1.6 6.4 0.00 0.00 0.00 94 1011.0
20260509085059 22 173 0.0 3.2 0.00 0.00 0.00 93 1011.0
20260509084554 22 173 0.0 1.6 0.00 0.00 0.00 93 1010.9
20260509084048 22 173 0.0 1.6 0.00 0.00 0.00 93 1010.9
20260509083542 22 173 0.0 0.0 0.00 0.00 0.00 93 1011.0
20260509083036 22 173 0.0 0.0 0.00 0.00 0.00 93 1011.1
20260509082529 22 173 0.0 1.6 0.00 0.00 0.00 93 1011.1
20260509082024 22 173 0.0 4.8 0.00 0.00 0.00 93 1011.2
20260509081518 22 173 0.0 4.8 0.00 0.00 0.00 93 1011.3
20260509081244 22 173 1.6 4.8 0.00 0.00 0.00 93 1011.3
20260509080738 22 173 1.6 4.8 0.00 0.00 0.00 93 1011.4
20260509080000 22 173 1.6 4.8 0.00 0.00 0.00 93 1011.4
20260509075453 22 173 1.6 9.7 0.00 0.00 0.00 93 1011.4
20260509074948 22 173 1.6 9.7 0.00 0.00 0.00 93 1011.3
20260509074442 22 168 1.6 9.7 0.00 0.00 0.00 93 1011.2
20260509074208 22 169 3.2 9.7 0.00 0.00 0.00 93 1011.0
20260509073430 22 166 1.6 9.7 0.00 0.00 0.00 93 1010.9
20260509072923 22 112 0.0 4.8 0.00 0.00 0.00 93 1011.0
20260509072418 22 112 0.0 3.2 0.00 0.00 0.00 93 1011.2
20260509071406 22 112 0.0 6.4 0.00 0.00 0.00 93 1011.2
20260509070900 22 112 1.6 6.4 0.00 0.00 0.00 92 1011.1
20260509070354 22 112 1.6 6.4 0.00 0.00 0.00 92 1011.1
20260509065847 22 111 1.6 4.8 0.00 0.00 0.00 92 1011.2
20260509065342 22 111 1.6 4.8 0.00 0.00 0.00 92 1011.2
20260509065107 22 111 1.6 4.8 0.00 0.00 0.00 92 1011.3
20260509064601 22 111 0.0 3.2 0.00 0.00 0.00 92 1011.5
20260509064054 22 111 0.0 3.2 0.00 0.00 0.00 92 1011.6
20260509063318 22 111 1.6 4.8 0.00 0.00 0.00 92 1011.5
20260509062812 22 111 1.6 6.4 0.00 0.00 0.00 92 1011.7
20260509062308 22 111 1.6 6.4 0.00 0.00 0.00 92 1011.6
20260509061808 22 111 1.6 6.4 0.00 0.00 0.00 92 1011.6
20260509061307 22 111 1.6 6.4 0.00 0.00 0.00 92 1011.7
20260509060806 22 110 0.0 3.2 0.00 0.00 0.00 92 1011.8
20260509060536 22 110 1.6 4.8 0.00 0.00 0.00 91 1011.9
20260509060032 22 110 1.6 4.8 0.00 0.00 0.00 91 1011.9
20260509055300 22 109 1.6 4.8 0.00 0.00 0.00 91 1011.9
20260509054800 22 109 1.6 4.8 0.00 0.00 0.00 91 1012.0
20260509054300 21 109 1.6 6.4 0.00 0.00 0.00 91 1011.8
20260509053758 21 109 0.0 6.4 0.00 0.00 0.00 91 1012.0
20260509053257 21 109 0.0 0.0 0.00 0.00 0.00 91 1012.0
20260509052758 21 109 0.0 0.0 0.00 0.00 0.00 91 1012.1
20260509052258 21 109 0.0 0.0 0.00 0.00 0.00 91 1012.2
20260509051258 21 109 0.0 1.6 0.00 0.00 0.00 91 1012.4
20260509050801 21 109 0.0 1.6 0.00 0.00 0.00 91 1012.4
20260509050300 21 109 0.0 1.6 0.00 0.00 0.00 91 1012.4
20260509045800 21 109 0.0 1.6 0.00 0.00 0.00 91 1012.2
20260509045527 21 109 0.0 1.6 0.00 0.00 0.00 91 1012.2
20260509044753 21 109 0.0 4.8 0.00 0.00 0.00 91 1012.2
20260509044251 21 109 1.6 4.8 0.00 0.00 0.00 91 1012.1
20260509043751 21 109 1.6 4.8 0.00 0.00 0.00 91 1012.0
20260509043523 21 109 1.6 4.8 0.00 0.00 0.00 91 1012.0
20260509042750 21 109 0.0 4.8 0.00 0.00 0.00 91 1012.0
20260509042249 21 107 0.0 4.8 0.00 0.00 0.00 91 1012.0
20260509041749 21 107 0.0 4.8 0.00 0.00 0.00 91 1011.8
20260509041247 21 107 0.0 0.0 0.00 0.00 0.00 90 1011.7
20260509040745 21 107 0.0 0.0 0.00 0.00 0.00 90 1011.8
20260509040244 21 107 0.0 0.0 0.00 0.00 0.00 90 1011.6
20260509035745 21 107 0.0 0.0 0.00 0.00 0.00 89 1011.5
20260509035239 21 107 0.0 1.6 0.00 0.00 0.00 89 1011.5
20260509034733 21 107 1.6 9.7 0.00 0.00 0.00 89 1011.3
20260509034227 21 107 1.6 9.7 0.00 0.00 0.00 89 1011.2
20260509033721 21 110 1.6 3.2 0.00 0.00 0.00 89 1011.0
20260509033215 21 110 1.6 4.8 0.00 0.00 0.00 89 1011.0
20260509032941 21 110 0.0 4.8 0.00 0.00 0.00 89 1011.0
20260509032203 21 110 0.0 3.2 0.00 0.00 0.00 88 1011.0
20260509031658 21 110 0.0 6.4 0.00 0.00 0.00 88 1010.9
20260509031151 21 110 0.0 6.4 0.00 0.00 0.00 88 1011.1
20260509030918 21 111 0.0 4.8 0.00 0.00 0.00 88 1011.2
20260509030139 21 111 0.0 4.8 0.00 0.00 0.00 88 1011.1
20260509025633 21 111 1.6 6.4 0.00 0.00 0.00 88 1011.1
20260509025127 21 111 1.6 6.4 0.00 0.00 0.00 88 1011.1
20260509024622 21 111 0.0 4.8 0.00 0.00 0.00 88 1011.1
20260509024351 21 111 0.0 4.8 0.00 0.00 0.00 88 1011.0
20260509023618 21 111 0.0 4.8 0.00 0.00 0.00 88 1010.9
20260509023119 21 111 0.0 0.0 0.00 0.00 0.00 87 1010.9
20260509022619 21 111 0.0 0.0 0.00 0.00 0.00 86 1010.8
20260509022119 21 111 0.0 0.0 0.00 0.00 0.00 86 1010.7
20260509021617 22 111 0.0 0.0 0.00 0.00 0.00 86 1010.6
20260509021117 22 111 0.0 1.6 0.00 0.00 0.00 86 1010.7
20260509020617 22 111 0.0 1.6 0.00 0.00 0.00 86 1010.7
20260509020117 22 111 1.6 4.8 0.00 0.00 0.00 85 1010.6
20260509015616 22 111 1.6 6.4 0.00 0.00 0.00 85 1010.4
20260509015116 22 111 1.6 6.4 0.00 0.00 0.00 85 1010.4
20260509014617 22 111 1.6 4.8 0.00 0.00 0.00 85 1010.2
20260509013617 22 111 0.0 4.8 0.00 0.00 0.00 84 1010.1
20260509013116 22 111 0.0 4.8 0.00 0.00 0.00 84 1010.0
20260509012617 22 111 0.0 4.8 0.00 0.00 0.00 84 1009.9
20260509012117 22 111 0.0 4.8 0.00 0.00 0.00 83 1010.0
20260509011847 23 111 0.0 0.0 0.00 0.00 0.00 83 1010.0
20260509011348 23 111 0.0 0.0 0.00 0.00 0.00 83 1009.9
20260509010617 23 111 0.0 0.0 0.00 0.00 0.00 83 1010.0
20260509010347 23 111 0.0 0.0 0.00 0.00 0.00 82 1010.0
20260509005615 23 111 0.0 3.2 0.00 0.00 0.00 82 1010.0
20260509005349 23 111 0.0 3.2 0.00 0.00 0.00 82 1009.8
20260509004611 23 111 0.0 4.8 0.00 0.00 0.00 81 1009.8
20260509004108 23 111 1.6 4.8 0.00 0.00 0.00 81 1009.8
20260509003606 23 111 1.6 4.8 0.00 0.00 0.00 81 1009.9
20260509003108 23 111 0.0 4.8 0.00 0.00 0.00 80 1009.9
20260509002603 23 111 0.0 4.8 0.00 0.00 0.00 80 1009.8
20260509002101 23 111 1.6 6.4 0.00 0.00 0.00 80 1009.9
20260509001601 23 111 1.6 6.4 0.00 0.00 0.00 79 1009.9
20260509001101 24 113 1.6 4.8 0.00 0.00 0.00 79 1009.9
20260509000558 24 113 0.0 4.8 0.00 0.00 0.00 79 1009.9
20260509000056 24 113 0.0 4.8 0.00 0.00 0.00 78 1009.9
20260508235554 24 113 0.0 3.2 0.00 0.00 0.00 79 1010.0
20260508235053 24 113 0.0 3.2 0.00 0.00 0.00 79 1010.0
20260508234550 24 113 0.0 6.4 0.00 0.00 0.00 80 1010.0
20260508234048 24 113 0.0 6.4 0.00 0.00 0.00 80 1010.0
20260508233549 23 113 0.0 4.8 0.00 0.00 0.00 80 1010.0
20260508233051 23 113 1.6 4.8 0.00 0.00 0.00 80 1010.0
20260508232815 23 113 1.6 4.8 0.00 0.00 0.00 79 1010.0
20260508232039 23 113 1.6 4.8 0.00 0.00 0.00 79 1010.0
20260508231532 23 113 1.6 4.8 0.00 0.00 0.00 79 1010.0
20260508231028 23 113 1.6 4.8 0.00 0.00 0.00 79 1010.0
20260508230520 23 113 1.6 9.7 0.00 0.00 0.00 79 1010.0
20260508230015 23 113 1.6 9.7 0.00 0.00 0.00 79 1010.0
20260508225508 23 112 1.6 6.4 0.00 0.00 0.00 79 1009.9
20260508225002 24 112 3.2 9.7 0.00 0.00 0.00 78 1009.9
20260508224457 24 113 3.2 9.7 0.00 0.00 0.00 79 1010.0
20260508223950 24 112 1.6 9.7 0.00 0.00 0.00 79 1010.0
20260508223716 24 112 1.6 9.7 0.00 0.00 0.00 79 1010.1
20260508223210 23 112 1.6 11.3 0.00 0.00 0.00 79 1010.2
20260508222432 23 111 3.2 11.3 0.00 0.00 0.00 80 1010.2
20260508221926 23 111 3.2 6.4 0.00 0.00 0.00 80 1010.4
20260508221421 23 111 3.2 9.7 0.00 0.00 0.00 81 1010.4
20260508221145 23 111 1.6 9.7 0.00 0.00 0.00 81 1010.4
20260508220409 23 111 1.6 9.7 0.00 0.00 0.00 81 1010.4
20260508215904 23 111 1.6 9.7 0.00 0.00 0.00 81 1010.5
20260508215357 23 112 3.2 6.4 0.00 0.00 0.00 81 1010.5
20260508215122 23 112 3.2 9.7 0.00 0.00 0.00 80 1010.5
20260508214346 23 112 3.2 9.7 0.00 0.00 0.00 80 1010.5
20260508213839 23 111 3.2 9.7 0.00 0.00 0.00 80 1010.6
20260508213333 23 111 3.2 12.9 0.00 0.00 0.00 80 1010.6
20260508212827 23 115 4.8 12.9 0.00 0.00 0.00 79 1010.6
20260508212321 23 123 3.2 11.3 0.00 0.00 0.00 79 1010.7
20260508211815 23 73 3.2 11.3 0.00 0.00 0.00 79 1010.7
20260508211309 23 120 3.2 9.7 0.00 0.00 0.00 79 1010.8
20260508210803 23 117 3.2 9.7 0.00 0.00 0.00 79 1011.0
20260508210256 23 113 3.2 9.7 0.00 0.00 0.00 79 1011.0
20260508205750 23 126 3.2 9.7 0.00 0.00 0.00 79 1011.1
20260508205245 23 128 1.6 9.7 0.00 0.00 0.00 79 1011.1
20260508204739 23 114 1.6 6.4 0.00 0.00 0.00 79 1011.3
20260508204233 23 113 3.2 9.7 0.00 0.00 0.00 79 1011.3
20260508203727 23 113 3.2 9.7 0.00 0.00 0.00 79 1011.4
20260508203221 23 113 3.2 9.7 0.00 0.00 0.00 79 1011.4
20260508202714 23 115 3.2 11.3 0.00 0.00 0.00 79 1011.4
20260508202208 23 123 3.2 12.9 0.00 0.00 0.00 78 1011.4
20260508201702 23 121 3.2 11.3 0.00 0.00 0.00 78 1011.3
20260508201427 23 108 3.2 11.3 0.00 0.00 0.00 78 1011.3
20260508200651 23 165 3.2 12.9 0.00 0.00 0.00 78 1011.4
20260508200145 24 99 3.2 12.9 0.00 0.00 0.00 78 1011.3
20260508195910 24 154 3.2 12.9 0.00 0.00 0.00 78 1011.4
20260508195132 24 80 3.2 12.9 0.00 0.00 0.00 78 1011.4
20260508194626 23 82 3.2 8.0 0.00 0.00 0.00 79 1011.5
20260508194120 23 81 3.2 8.0 0.00 0.00 0.00 78 1011.5
20260508193615 24 81 3.2 12.9 0.00 0.00 0.00 78 1011.6
20260508193109 23 74 3.2 12.9 0.00 0.00 0.00 78 1011.5
20260508192559 23 75 3.2 12.9 0.00 0.00 0.00 78 1011.6
20260508192325 23 82 3.2 14.5 0.00 0.00 0.00 78 1011.6
20260508191550 24 117 3.2 14.5 0.00 0.00 0.00 77 1011.6
20260508191043 24 166 3.2 12.9 0.00 0.00 0.00 78 1011.6
20260508190543 24 167 3.2 12.9 0.00 0.00 0.00 78 1011.7
20260508190040 23 76 3.2 11.3 0.00 0.00 0.00 79 1011.7
20260508185540 23 106 3.2 8.0 0.00 0.00 0.00 79 1011.8
20260508185040 23 102 3.2 6.4 0.00 0.00 0.00 79 1011.9
20260508184540 23 103 1.6 6.4 0.00 0.00 0.00 79 1011.9
20260508184040 23 132 1.6 8.0 0.00 0.00 0.00 79 1012.1
20260508183539 23 132 3.2 11.3 0.00 0.00 0.00 79 1012.1
20260508183040 23 56 3.2 11.3 0.00 0.00 0.00 78 1012.1
20260508182540 23 129 3.2 9.7 0.00 0.00 0.00 80 1012.1
20260508181536 22 124 3.2 12.9 0.00 0.00 0.00 82 1012.2
20260508181035 22 124 3.2 12.9 0.00 0.00 0.00 82 1012.4
20260508180535 22 74 3.2 8.0 0.00 0.00 0.00 83 1012.4
20260508180036 21 71 1.6 8.0 0.00 0.00 0.00 83 1012.7
20260508175538 21 63 1.6 6.4 0.00 0.00 0.00 84 1012.8
20260508175039 21 61 1.6 6.4 0.00 0.00 0.00 83 1012.9
20260508174538 21 59 1.6 6.4 0.00 0.00 0.00 83 1013.0
20260508174039 21 59 1.6 4.8 0.00 0.00 0.00 83 1013.1
20260508173531 21 59 1.6 4.8 0.00 0.00 0.00 83 1013.2
20260508173025 21 59 1.6 4.8 0.00 0.00 0.00 84 1013.2
20260508172520 21 56 0.0 4.8 0.00 0.00 0.00 84 1013.2
20260508172011 21 56 0.0 1.6 0.00 0.00 0.00 84 1013.3
20260508171505 21 56 0.0 1.6 0.00 0.00 0.00 84 1013.3
20260508171002 20 56 0.0 4.8 0.00 0.00 0.00 84 1013.4
20260508170455 20 56 1.6 6.4 0.00 0.00 0.00 84 1013.4
20260508165949 20 56 1.6 6.4 0.00 0.00 0.00 84 1013.4
20260508165444 20 55 0.0 4.8 0.00 0.00 0.00 84 1013.4
20260508164938 20 55 0.0 4.8 0.00 0.00 0.00 84 1013.4
20260508164432 20 55 1.6 4.8 0.00 0.00 0.00 84 1013.5
20260508163926 20 55 1.6 4.8 0.00 0.00 0.00 85 1013.6
20260508163419 20 55 0.0 4.8 0.00 0.00 0.00 85 1013.8
20260508162913 20 55 1.6 6.4 0.00 0.00 0.00 85 1013.7
20260508162408 19 55 1.6 6.4 0.00 0.00 0.00 85 1013.7
20260508161901 19 55 1.6 6.4 0.00 0.00 0.00 86 1013.7
20260508161355 19 55 3.2 9.7 0.00 0.00 0.00 87 1013.7
20260508160850 18 57 3.2 9.7 0.00 0.00 0.00 87 1013.8
20260508160344 18 55 1.6 6.4 0.00 0.00 0.00 87 1013.9
20260508155837 18 56 1.6 6.4 0.00 0.00 0.00 88 1013.9
20260508155331 18 57 1.6 6.4 0.00 0.00 0.00 88 1014.0
20260508154826 18 56 1.6 8.0 0.00 0.00 0.00 88 1014.2
20260508154320 17 56 1.6 8.0 0.00 0.00 0.00 87 1014.2
20260508153814 17 57 1.6 6.4 0.00 0.00 0.00 88 1014.3
20260508153308 17 57 1.6 6.4 0.00 0.00 0.00 87 1014.3
20260508152801 17 57 1.6 8.0 0.00 0.00 0.00 87 1014.4
20260508152256 17 58 1.6 8.0 0.00 0.00 0.00 87 1014.4
20260508151750 17 58 1.6 6.4 0.00 0.00 0.00 87 1014.7
20260508151244 17 59 1.6 6.4 0.00 0.00 0.00 87 1014.5
20260508150737 17 59 1.6 8.0 0.00 0.00 0.00 87 1014.6
20260508150231 17 59 1.6 8.0 0.00 0.00 0.00 88 1014.6
20260508145725 17 59 1.6 6.4 0.00 0.00 0.00 88 1014.7
20260508145220 17 59 1.6 9.7 0.00 0.00 0.00 88 1014.7
20260508144944 17 59 3.2 9.7 0.00 0.00 0.00 88 1014.6
20260508144208 17 60 3.2 9.7 0.00 0.00 0.00 88 1014.5
20260508143701 17 62 1.6 8.0 0.00 0.00 0.00 88 1014.6
20260508143155 16 65 1.6 8.0 0.00 0.00 0.00 88 1014.6
20260508142922 16 65 1.6 8.0 0.00 0.00 0.00 88 1014.6
20260508142143 16 68 3.2 8.0 0.00 0.00 0.00 88 1014.7
20260508141637 16 68 3.2 9.7 0.00 0.00 0.00 88 1014.7
20260508141131 16 69 3.2 9.7 0.00 0.00 0.00 87 1014.6
20260508140626 16 71 1.6 8.0 0.00 0.00 0.00 87 1014.7
20260508140119 16 73 1.6 8.0 0.00 0.00 0.00 87 1014.8
20260508135613 16 73 3.2 8.0 0.00 0.00 0.00 87 1014.8
20260508135109 16 76 3.2 8.0 0.00 0.00 0.00 87 1014.9
20260508134602 16 76 1.6 8.0 0.00 0.00 0.00 87 1014.7
20260508134329 16 78 1.6 6.4 0.00 0.00 0.00 87 1014.7
20260508133559 16 78 1.6 6.4 0.00 0.00 0.00 87 1014.5
20260508133100 16 78 1.6 6.4 0.00 0.00 0.00 87 1014.4
20260508132557 16 80 1.6 6.4 0.00 0.00 0.00 87 1014.4
20260508132328 16 80 1.6 6.4 0.00 0.00 0.00 87 1014.3
20260508131553 16 80 1.6 4.8 0.00 0.00 0.00 87 1014.4
20260508131051 16 59 0.0 3.2 0.00 0.00 0.00 87 1014.2
20260508130551 16 55 0.0 3.2 0.00 0.00 0.00 87 1014.3
20260508130052 16 55 0.0 3.2 0.00 0.00 0.00 88 1014.1
20260508125549 16 55 1.6 4.8 0.00 0.00 0.00 87 1014.0
20260508125047 16 55 1.6 6.4 0.00 0.00 0.00 87 1014.2
20260508124816 16 55 1.6 6.4 0.00 0.00 0.00 87 1014.4
20260508124047 16 55 1.6 4.8 0.00 0.00 0.00 87 1014.5
20260508123541 16 55 0.0 3.2 0.00 0.00 0.00 87 1014.7
20260508123040 16 55 1.6 4.8 0.00 0.00 0.00 87 1014.5
20260508122537 16 55 1.6 4.8 0.00 0.00 0.00 86 1014.5
20260508122035 16 55 1.6 4.8 0.00 0.00 0.00 86 1014.5
20260508121533 16 55 1.6 4.8 0.00 0.00 0.00 86 1014.4
20260508121032 16 55 0.0 3.2 0.00 0.00 0.00 85 1014.4
20260508120529 16 55 0.0 6.4 0.00 0.00 0.00 85 1014.6